EW5414 Weather Reports


Display with metric or nautical units.
time (UTC)temp
F
wind
direction
speed
MPH
gust
MPH
rain 1hr
in
rain 24hr
in
rain mn
in
humidity
%
barometer
mb
20260506174507 47 287 0.0 0.0 0.00 0.54 0.51 87 1011.4
20260506173014 47 287 0.0 0.0 0.00 0.54 0.51 87 1011.2
20260506171535 48 284 0.0 0.0 0.00 0.54 0.51 88 1011.2
20260506170023 48 284 0.0 0.0 0.00 0.54 0.51 88 1011.2
20260506164508 48 279 0.0 0.0 0.00 0.54 0.51 88 1011.2
20260506163019 47 279 0.0 0.0 0.00 0.54 0.51 87 1011.2
20260506161520 48 269 0.0 0.0 0.00 0.54 0.51 87 1011.2
20260506160020 48 231 0.0 0.0 0.00 0.54 0.51 87 1011.2
20260506154525 48 281 0.0 0.0 0.00 0.54 0.51 87 1011.3
20260506153010 48 234 0.0 0.0 0.00 0.55 0.51 87 1011.3
20260506151514 48 256 0.0 0.0 0.00 0.56 0.51 86 1011.4
20260506150023 48 285 0.0 0.0 0.00 0.56 0.51 87 1011.4
20260506144526 48 291 0.0 0.0 0.00 0.56 0.51 88 1011.4
20260506143024 48 298 0.0 0.0 0.00 0.56 0.51 88 1011.5
20260506141526 48 285 0.0 0.0 0.00 0.56 0.51 88 1011.4
20260506140019 48 220 0.0 0.0 0.00 0.56 0.51 88 1011.4
20260506134543 48 249 0.0 0.0 0.00 0.56 0.51 87 1011.5
20260506133025 47 307 0.0 0.0 0.00 0.56 0.51 87 1011.4
20260506131527 47 228 0.0 0.0 0.00 0.56 0.51 87 1011.3
20260506130028 46 253 0.0 0.0 0.00 0.56 0.51 87 1011.3
20260506124518 47 292 0.0 0.0 0.00 0.56 0.51 87 1011.2
20260506123004 47 279 0.0 0.0 0.00 0.56 0.51 88 1011.0
20260506121510 48 171 0.0 0.0 0.00 0.56 0.51 89 1010.8
20260506120013 48 187 0.0 0.0 0.00 0.57 0.51 90 1010.6
20260506114522 48 257 0.0 1.0 0.00 0.57 0.51 90 1010.6
20260506113020 48 257 0.0 8.0 0.00 0.57 0.51 91 1010.5
20260506111504 47 302 0.0 10.0 0.01 0.60 0.51 92 1010.5
20260506110012 46 286 0.0 5.0 0.02 0.68 0.51 92 1010.6
20260506104510 45 300 0.0 1.0 0.02 0.72 0.51 92 1010.7
20260506103022 44 278 1.0 7.0 0.06 0.75 0.51 92 1010.7
20260506101519 45 281 0.0 0.0 0.07 0.75 0.50 92 1010.7
20260506100004 44 273 0.0 0.0 0.09 0.74 0.49 92 1010.6
20260506094514 44 277 0.0 0.0 0.11 0.74 0.48 92 1010.6
20260506093014 44 266 0.0 0.0 0.10 0.70 0.44 92 1010.3
20260506091524 46 295 0.0 0.0 0.11 0.67 0.42 92 1010.0
20260506090021 46 299 0.0 0.0 0.13 0.65 0.40 92 1009.7
20260506084526 47 299 0.0 0.0 0.14 0.62 0.37 92 1009.5
20260506083008 46 310 0.0 0.0 0.14 0.59 0.34 92 1009.3
20260506081521 47 259 0.0 0.0 0.14 0.55 0.30 92 1009.1
20260506073031 47 296 0.0 0.0 0.14 0.45 0.20 92 1008.7
20260506071510 47 296 0.0 0.0 0.11 0.41 0.16 92 1008.5
20260506061534 47 290 0.0 0.0 0.00 0.30 0.04 92 1008.2
20260506044519 46 290 0.0 0.0 0.00 0.33 0.03 92 1007.8
20260506043018 46 290 0.0 0.0 0.00 0.35 0.03 92 1008.0
20260506041505 46 290 0.0 0.0 0.00 0.37 0.03 92 1008.2
20260506040007 45 290 0.0 0.0 0.00 0.40 0.03 92 1008.1
20260506034514 46 290 0.0 0.0 0.00 0.41 0.03 92 1008.1
20260506033019 45 290 0.0 0.0 0.00 0.42 0.03 92 1008.3
20260506031528 45 290 0.0 0.0 0.00 0.43 0.03 92 1008.4
20260506030006 46 290 0.0 0.0 0.00 0.44 0.03 92 1008.6
20260506024525 46 290 0.0 0.0 0.00 0.44 0.03 92 1008.7
20260506023015 46 290 0.0 0.0 0.00 0.46 0.03 91 1009.0
20260506021521 46 290 0.0 0.0 0.00 0.48 0.03 91 1009.0
20260506020024 46 290 0.0 0.0 0.00 0.49 0.03 91 1009.2
20260506014513 47 290 0.0 0.0 0.00 0.51 0.03 91 1009.4
20260506013011 48 290 0.0 0.0 0.00 0.53 0.03 91 1009.4
20260506011537 48 290 0.0 0.0 0.00 0.56 0.03 91 1009.8
20260506010022 48 290 0.0 0.0 0.00 0.57 0.03 91 1010.0
20260506004524 48 290 0.0 0.0 0.00 0.58 0.03 91 1010.2
20260506003010 48 290 0.0 0.0 0.00 0.58 0.03 91 1010.4
20260506001512 48 289 0.0 0.0 0.00 0.58 0.03 91 1010.8
20260506000035 48 281 0.0 0.0 0.00 0.58 0.03 91 1010.9
20260505234537 48 290 0.0 0.0 0.00 0.58 0.03 91 1011.0
20260505233028 49 284 0.0 0.0 0.00 0.58 0.03 91 1011.2
20260505231512 49 260 0.0 0.0 0.01 0.58 0.03 91 1011.4
20260505230037 48 294 0.0 0.0 0.03 0.58 0.03 91 1011.4
20260505224534 48 294 0.0 0.0 0.03 0.57 0.03 90 1011.6
20260505223026 49 300 0.0 0.0 0.03 0.57 0.03 90 1011.8
20260505221526 49 281 0.0 0.0 0.03 0.56 0.02 90 1011.9
20260505220027 49 294 0.0 0.0 0.00 0.54 0.00 89 1012.1
20260505214521 49 294 0.0 0.0 0.00 0.53 0.53 89 1012.3
20260505213024 49 294 0.0 0.0 0.00 0.53 0.53 89 1012.0
20260505211529 48 294 0.0 0.0 0.00 0.53 0.53 89 1011.8
20260505210008 48 294 0.0 0.0 0.00 0.53 0.53 89 1011.9
20260505204516 48 294 0.0 0.0 0.00 0.53 0.53 88 1012.0
20260505203017 49 294 0.0 0.0 0.00 0.53 0.53 89 1012.0
20260505201524 49 284 0.0 0.0 0.00 0.53 0.53 89 1011.9
20260505200026 48 284 0.0 0.0 0.00 0.53 0.53 90 1011.8
20260505194508 48 284 0.0 0.0 0.00 0.53 0.53 89 1011.6
20260505193020 48 284 0.0 0.0 0.00 0.53 0.53 89 1011.5
20260505191519 48 284 0.0 0.0 0.00 0.53 0.53 89 1011.2
20260505190025 48 283 0.0 0.0 0.01 0.53 0.53 89 1011.0
20260505184531 49 282 0.0 0.0 0.01 0.53 0.53 88 1010.8
20260505183011 50 282 0.0 0.0 0.01 0.53 0.53 88 1010.8
20260505181515 51 282 0.0 0.0 0.01 0.53 0.53 86 1010.9
20260505180025 52 282 0.0 1.0 0.00 0.51 0.51 85 1011.3